Estación de Vida Nueva
Ultimos registro cada 15 minutos 30
| N° | Estación | Fecha / Hora | Temperatura | Humedad | Lluvia | Velocidad | Dirección | Radiación | Presion |
| 30 | Vida Nueva | 08-05-2026 23:00 | 8,8 | 60,2 | 0 | 0 | 122 | 0,6 | 998,3 |
| 29 | Vida Nueva | 08-05-2026 22:45 | 8,9 | 60,4 | 0 | 0 | 83 | 0,6 | 997,8 |
| 28 | Vida Nueva | 08-05-2026 22:30 | 8,4 | 62 | 0 | 0 | 39 | 0,6 | 997,8 |
| 27 | Vida Nueva | 08-05-2026 22:15 | 8,4 | 62 | 0 | 0 | 128 | 0,6 | 997,9 |
| 26 | Vida Nueva | 08-05-2026 22:00 | 8,9 | 60,6 | 0 | 0 | 115 | 0,6 | 997,6 |
| 25 | Vida Nueva | 08-05-2026 21:45 | 9,2 | 60 | 0 | 0 | 114 | 0,6 | 997,4 |
| 24 | Vida Nueva | 08-05-2026 21:30 | 9,3 | 60 | 0 | 0 | 108 | 0,6 | 997,4 |
| 23 | Vida Nueva | 08-05-2026 21:15 | 8,7 | 61,9 | 0 | 0 | 125 | 0,6 | 997,2 |
| 22 | Vida Nueva | 08-05-2026 21:00 | 9,1 | 61,2 | 0 | 0 | 159 | 0,6 | 997,1 |
| 21 | Vida Nueva | 08-05-2026 20:45 | 9,1 | 61,8 | 0 | 0 | 150 | 0,6 | 997 |
| 20 | Vida Nueva | 08-05-2026 20:30 | 9,4 | 61,6 | 0 | 0 | 100 | 0,6 | 997 |
| 19 | Vida Nueva | 08-05-2026 20:15 | 9,1 | 62,6 | 0 | 0 | 159 | 0,6 | 996,9 |
| 18 | Vida Nueva | 08-05-2026 20:00 | 9,1 | 62,6 | 0 | 0 | 161 | 0,6 | 996,9 |
| 17 | Vida Nueva | 08-05-2026 19:45 | 8,7 | 61,8 | 0 | 0 | 146 | 0,6 | 996,7 |
| 16 | Vida Nueva | 08-05-2026 19:30 | 9 | 62,2 | 0 | 0 | 149 | 0,6 | 996,4 |
| 15 | Vida Nueva | 08-05-2026 19:15 | 9,2 | 62,1 | 0 | 0 | 147 | 0,6 | 996,2 |
| 14 | Vida Nueva | 08-05-2026 19:00 | 9,1 | 61,5 | 0 | 0 | 118 | 0,6 | 995,8 |
| 13 | Vida Nueva | 08-05-2026 18:45 | 8,5 | 57,1 | 0 | 0 | 163 | 0,6 | 995,4 |
| 12 | Vida Nueva | 08-05-2026 18:30 | 8,1 | 51,6 | 0 | 0 | 167 | 0,6 | 995,2 |
| 11 | Vida Nueva | 08-05-2026 18:15 | 8,2 | 51,8 | 0 | 0 | 167 | 0,6 | 995 |
| 10 | Vida Nueva | 08-05-2026 18:00 | 8,3 | 51,8 | 0 | 0 | 167 | 1,9 | 994,6 |
| 9 | Vida Nueva | 08-05-2026 17:45 | 9 | 58,2 | 0 | 0 | 167 | 8,1 | 994,3 |
| 8 | Vida Nueva | 08-05-2026 17:30 | 9,7 | 62,2 | 0 | 0 | 136 | 43,1 | 993,3 |
| 7 | Vida Nueva | 08-05-2026 17:15 | 10,4 | 62,4 | 0 | 0 | 87 | 84,4 | 992,9 |
| 6 | Vida Nueva | 08-05-2026 17:00 | 11 | 59,8 | 0 | 0 | 79 | 129,4 | 992,8 |
| 5 | Vida Nueva | 08-05-2026 16:45 | 11 | 58 | 0 | 0 | 166 | 165,6 | 992,3 |
| 4 | Vida Nueva | 08-05-2026 16:30 | 11,5 | 53,2 | 0 | 0 | 111 | 204,4 | 992 |
| 3 | Vida Nueva | 08-05-2026 16:15 | 11,2 | 52,9 | 0 | 0 | 118 | 241,9 | 991,8 |
| 2 | Vida Nueva | 08-05-2026 16:00 | 10,9 | 49 | 0 | 0 | 119 | 275,6 | 991,7 |
| 1 | Vida Nueva | 08-05-2026 15:45 | 11,2 | 26,7 | 0 | 0 | 67 | 359,4 | 991,3 |